Location: Bern/Schweiz
(46.9381°N, 7.4364°E)
Time: 01:17:06
(UTC+01:00)

ISS - Pass Details

Date: 27 September 2020
Orbit: 417 x 420 km, 51.6° (Epoch: 27 October)

Event Time Altitude Azimuth Distance (km) Brightness Sun altitude
Rises 21:02:20 0° 289° (WNW) 2,370 1.8 -18.5°
Reaches altitude 10° 21:04:31 10° 298° (WNW) 1,505 0.3 -18.9°
Maximum altitude 21:07:43 38° 9° (N) 656 -2.8 -19.4°
Enters shadow 21:08:06 37° 27° (NNE) 675 -2.8 -19.5°
